This is the latest recevied weather packets stored in our database for station/object NC4M. If no packets are shown the sender has not sent any weather packets the latest 10 day(s).
| Time | Temp. | Humidity | Pressure | Rain* | Wind** | Luminosity | Snow |
|---|---|---|---|---|---|---|---|
| 1787365805 | 22.78° C | 92% | 1016.4 hPa | 0 mm | - | 0 W/m² | - |
| 1787365504 | 22.78° C | 91% | 1016.5 hPa | 0 mm | - | 0 W/m² | - |
| 1787365199 | 22.78° C | 91% | 1016.6 hPa | 0 mm | - | 0 W/m² | - |
| 1787364895 | 23.33° C | 90% | 1016.7 hPa | 0 mm | - | 0 W/m² | - |
| 1787364591 | 23.33° C | 90% | 1016.7 hPa | 0 mm | - | 0 W/m² | - |
| 1787364286 | 23.33° C | 90% | 1016.6 hPa | 0 mm | - | 0 W/m² | - |
| 1787363981 | 23.33° C | 90% | 1016.7 hPa | 0 mm | - | 0 W/m² | - |
| 1787363680 | 23.89° C | 89% | 1016.6 hPa | 0 mm | - | 0 W/m² | - |
| 1787363376 | 23.89° C | 88% | 1016.8 hPa | 0 mm | - | 0 W/m² | - |
| 1787363070 | 23.89° C | 88% | 1016.9 hPa | 0 mm | - | 0 W/m² | - |
| 1787362766 | 23.89° C | 88% | 1016.9 hPa | 0 mm | - | 0 W/m² | - |
| 1787362461 | 23.89° C | 87% | 1016.9 hPa | 0 mm | - | 0 W/m² | - |
| 1787362156 | 23.89° C | 86% | 1016.8 hPa | 0 mm | - | 0 W/m² | - |
| 1787361855 | 24.44° C | 85% | 1016.5 hPa | 0 mm | - | 0 W/m² | - |
| 1787361556 | 24.44° C | 86% | 1016.7 hPa | 0 mm | - | 0 W/m² | - |
| 1787361255 | 24.44° C | 84% | 1016.7 hPa | 0 mm | - | 0 W/m² | - |
| 1787360951 | 24.44° C | 85% | 1016.6 hPa | 0 mm | - | 0 W/m² | - |
| 1787360651 | 24.44° C | 84% | 1016.6 hPa | 0 mm | - | 0 W/m² | - |
| 1787360351 | 24.44° C | 84% | 1016.6 hPa | 0 mm | - | 1 W/m² | - |
| 1787360046 | 25° C | 84% | 1016.7 hPa | 0 mm | - | 1 W/m² | - |
| 1787359741 | 25° C | 80% | 1016.6 hPa | 0 mm | - | 2 W/m² | - |
| 1787359439 | 25° C | 82% | 1016.6 hPa | 0 mm | - | 3 W/m² | - |
| 1787359138 | 25.56° C | 77% | 1016.6 hPa | 0 mm | - | 5 W/m² | - |
| 1787358833 | 25.56° C | 79% | 1016.5 hPa | 0 mm | - | 7 W/m² | - |
| 1787358532 | 25.56° C | 79% | 1016.5 hPa | 0 mm | - | 8 W/m² | - |
* Rain latest hour (hover to see other rain measurements)
** Current wind speed in m/s (hover to see current wind gust speed)